Regional Weather Roundup
Issued by NWS

Home | Current Version | Previous Version | Text Only | Print | Product List | Glossary Off
Versions: 1 2 3 4 5 6 7 8 9 10 11 12 13 14 15 16 17 18 19 20 21 22 23 24 25 26 27 28 29 30 31 32 33 34 35 36 37 38 39 40 41 42 43 44 45 46 47 48 49 50

000
ASUS44 KMEG 221300
RWRTN
TENNESSEE HOURLY STATE WEATHER ROUNDUP
NATIONAL WEATHER SERVICE MEMPHIS TN
700 AM CST MON DEC 22 2014

TNZ002-004-019-021-049-052-054-088>092-221400-
WEST TENNESSEE

CITY           SKY/WX    TMP DP  RH WIND       PRES   REMARKS
MEMPHIS INTL   CLOUDY    50  48  93 S9        29.84S VSB 1
NWS MEMPHIS      N/A     50 N/A N/A MISG        N/A
JACKSON        CLOUDY    50  46  86 VRB7      29.87R
DYERSBURG      CLOUDY    46  36  66 SE3       29.86F
UNION CITY     CLOUDY    45  45 100 E5        29.85F
PARIS          CLOUDY    43  41  93 SE8       29.88R
LEXINGTON      PTCLDY    48  45  87 S6        29.88S
SAVANNAH       CLOUDY    48  48 100 SE9       29.90S
$$

TNZ008-025-027-028-033-062-065-066-221400-
NORTH MIDDLE TENNESSEE

CITY           SKY/WX    TMP DP  RH WIND       PRES   REMARKS
NASHVILLE      CLOUDY    48  44  86 SE6       29.95S
CLARKSVILLE    CLOUDY    46  43  89 SE9       29.90F
COOKEVILLE     CLOUDY    46  43  87 S5        29.97S
CROSSVILLE     CLOUDY    45  39  79 S5        30.00R
$$

TNZ061-075-076-078-094-096-097-221400-
SOUTH MIDDLE TENNESSEE

CITY           SKY/WX    TMP DP  RH WIND       PRES   REMARKS
FAYETTEVILLE   CLOUDY    46  43  87 MISG      29.96R
TULLAHOMA      CLOUDY    46  43  87 SE7       29.95F
WINCHESTER     CLOUDY    46  43  87 SE12      29.96F
SHELBYVILLE    CLOUDY    48  45  87 SE6       29.96S
$$

TNZ017-018-042-046-047-221400-
NORTHEAST TENNESSEE

CITY           SKY/WX    TMP DP  RH WIND       PRES   REMARKS
TRI CITIES     CLOUDY    41  37  86 CALM      30.06R
ELIZABETHTON   CLOUDY    43  37  81 NE3       30.04R
$$

TNZ012-013-036-069-073-074-221400-
CENTRAL EAST TENNESSEE

CITY           SKY/WX    TMP DP  RH WIND       PRES   REMARKS
KNOXVILLE      CLOUDY    43  37  79 NE3       30.03S
OAK RIDGE      CLOUDY    45  37  73 E5        30.04F
GATLINBURG     CLOUDY    36  36 100 CALM      30.03S
$$

TNZ083-085-099-221400-
SOUTHEAST TENNESSEE

CITY           SKY/WX    TMP DP  RH WIND       PRES   REMARKS
CHATTANOOGA    CLOUDY    47  41  80 CALM      30.03R
$$

SKY/WX REPORTED AS FAIR MEANS FEW OR NO CLOUDS BELOW
12 THOUSAND FEET.




USA.gov is the U.S. government's official web portal to all federal, state and local government web resources and services.